Theta_e
350 350 350 350 350 349 349 350 351 351 350 350 349 349 350 350 350 350 351 351 350 349 350 350 349 350 350 349 349 348 349 348 347 346 347 349 345 339 341 344 346 348 347 348 348 347 347 346 346 346 346 345 345 344 344 343 342 341 340 340 341 341 342 342 342 342 342 342 341 340 340 339 338 338 338 337 339 341 343 343 342 342 342 341 341
350 350 351 351 351 351 351 351 351 350 350 350 351 350 350 351 352 351 352 352 350 349 349 350 349 349 349 348 348 347 348 348 347 346 346 348 345 339 341 344 344 348 348 348 349 347 346 346 345 346 346 345 346 345 345 345 344 342 341 340 341 342 342 342 342 342 342 342 340 340 341 340 339 339 339 340 341 342 342 342 342 341 341 341 341
350 350 350 350 351 351 351 351 350 349 350 350 351 352 352 352 352 352 353 352 350 350 350 351 350 349 349 348 348 348 347 347 347 346 346 348 346 339 342 344 343 346 347 348 348 346 346 345 345 346 346 346 347 346 345 345 345 344 344 342 342 342 341 341 340 341 342 342 341 341 341 341 340 340 341 341 341 341 341 341 341 341 341 340 340
352 351 351 350 350 350 351 351 350 350 350 350 351 351 352 352 352 352 353 353 351 351 351 351 350 349 349 348 348 347 346 346 346 345 345 346 345 339 341 345 345 344 345 346 347 346 345 346 346 347 347 346 347 346 345 346 345 345 345 344 344 344 343 342 340 340 341 342 341 341 341 342 342 341 341 341 341 341 340 341 340 340 340 340 340
351 351 351 351 351 351 351 351 350 351 351 350 351 351 352 353 352 352 352 353 352 351 351 350 349 348 348 348 347 345 345 344 344 345 345 344 342 338 339 343 345 346 345 345 346 346 346 346 347 347 348 347 347 347 346 346 345 345 345 345 345 345 345 344 342 341 341 342 342 342 342 341 342 342 342 341 341 341 341 341 341 340 340 340 341
351 351 351 351 351 351 351 351 351 351 351 351 352 352 353 353 353 351 349 350 351 351 350 349 348 347 348 347 346 346 345 344 343 344 344 342 339 337 338 340 343 346 346 346 346 346 346 347 347 347 347 348 348 348 347 346 346 345 345 345 345 344 344 344 344 343 343 343 343 343 342 342 342 342 342 342 342 341 342 341 341 341 340 340 341
351 351 351 352 351 351 351 351 351 351 352 351 352 353 353 353 353 352 349 350 351 351 349 348 347 346 346 345 345 347 346 345 344 343 344 342 337 337 337 339 341 343 345 345 345 346 345 346 347 346 347 347 347 348 348 347 347 347 346 345 344 344 343 344 345 344 343 343 343 343 342 342 343 342 343 343 342 342 342 342 342 341 341 341 341
352 352 352 352 352 351 351 351 351 351 352 352 352 353 353 353 354 353 352 352 350 349 348 347 346 344 341 341 342 345 347 346 345 343 343 341 337 337 338 339 340 341 343 343 343 343 342 343 344 345 346 347 347 347 348 347 347 347 346 346 345 345 344 344 345 344 343 343 343 343 343 343 343 343 342 342 342 342 342 343 343 342 342 342 341
352 353 353 353 352 351 351 351 352 352 352 352 353 354 354 354 353 353 353 352 349 348 347 345 344 341 338 338 340 343 347 347 345 344 343 341 338 337 338 339 339 341 342 341 340 340 340 339 340 342 344 346 346 346 347 347 347 347 347 347 346 346 345 345 344 344 344 344 344 343 343 343 343 342 343 343 342 343 343 343 342 342 342 342 342
353 352 353 353 351 350 351 352 353 352 353 353 353 354 354 354 353 354 353 351 349 345 344 345 343 339 338 339 340 343 347 346 345 344 343 342 340 338 339 340 340 340 341 341 341 340 338 336 336 338 341 344 345 345 346 347 346 346 346 346 346 346 346 345 344 345 345 344 344 344 343 343 343 343 343 343 343 343 343 342 342 342 342 342 342
353 352 352 352 351 351 351 352 353 353 353 353 354 354 354 354 354 354 353 350 346 340 340 344 342 339 339 339 340 342 345 345 345 344 343 343 342 341 341 342 342 342 343 344 343 340 338 337 335 335 338 341 343 344 345 346 346 346 346 346 346 347 347 346 345 346 345 344 343 343 343 343 343 343 343 343 343 343 343 343 342 342 342 342 342
353 352 352 351 352 351 352 353 353 353 353 353 354 354 354 354 354 353 353 349 342 338 340 343 341 339 340 340 341 342 343 344 344 343 344 344 344 344 343 344 345 345 346 346 343 342 343 343 339 336 336 338 340 342 344 345 345 346 346 346 346 346 346 346 347 346 345 345 344 343 344 343 344 343 343 343 343 343 343 343 342 342 341 339 335
353 353 352 352 352 352 353 353 353 353 353 354 354 354 354 355 354 354 353 347 340 338 341 342 340 340 341 341 341 342 344 344 344 343 344 346 346 346 345 345 346 346 346 347 346 346 347 346 344 340 336 337 339 340 342 343 344 345 345 346 346 346 346 346 346 346 346 345 345 345 344 344 344 343 343 343 343 343 343 342 342 341 335 328 324
353 353 353 352 352 353 353 353 353 353 353 354 354 355 355 355 354 354 352 347 340 338 341 341 341 341 341 342 343 344 344 343 345 345 345 346 346 346 347 346 345 345 345 346 346 346 346 346 346 344 340 338 339 339 340 341 343 344 344 343 344 345 346 346 346 346 346 345 345 345 345 344 344 343 344 343 342 342 342 342 340 334 323 317 317
353 353 353 353 352 353 353 353 352 351 353 354 355 355 355 355 354 354 352 348 342 339 340 341 341 343 343 345 345 346 348 345 344 345 345 346 346 346 347 345 344 344 345 345 344 345 346 346 345 345 344 342 341 340 339 339 340 341 342 342 342 343 343 345 346 346 346 345 345 345 345 345 344 344 343 343 343 342 340 336 328 320 315 315 316
353 353 353 353 352 352 353 354 353 352 353 354 354 355 355 355 354 355 353 349 343 340 341 340 339 342 343 343 339 342 352 348 341 343 344 345 346 345 346 345 344 344 343 343 343 344 344 345 345 344 344 344 343 341 339 338 339 339 340 341 341 341 341 342 344 346 346 345 345 345 345 344 343 343 343 343 341 335 328 321 316 314 315 315 316
353 352 353 353 353 352 352 354 353 352 352 353 354 355 355 355 354 355 353 350 346 340 340 338 337 340 342 342 341 344 352 345 338 343 343 342 345 344 345 345 344 344 343 342 342 342 343 343 343 342 342 343 343 342 340 339 339 340 340 340 341 341 341 341 342 344 346 345 345 345 344 344 344 343 341 338 332 321 316 315 315 315 316 317 319
352 352 352 352 352 351 351 352 352 351 352 353 354 354 355 355 354 355 354 351 348 343 341 339 338 339 338 340 340 344 347 341 341 347 343 340 342 342 343 344 344 344 343 341 341 341 342 341 340 340 339 341 342 342 341 340 340 339 338 338 339 341 340 340 340 342 343 343 344 343 342 342 340 335 330 324 319 314 315 316 315 317 319 321 324
352 353 353 352 352 351 349 348 348 350 352 353 353 353 355 356 355 356 355 353 350 347 344 341 340 339 338 337 337 339 341 339 343 349 349 347 342 339 342 343 343 343 342 342 341 341 341 340 339 338 336 337 338 341 342 341 340 339 335 331 333 334 334 336 337 337 337 339 342 343 339 335 328 321 317 316 315 316 317 317 319 321 324 326 327
352 353 353 353 352 351 350 347 345 347 351 352 352 353 354 355 356 356 356 355 352 350 347 343 341 340 338 337 338 341 341 339 338 342 350 355 348 342 342 342 343 343 342 342 341 341 341 340 339 337 336 335 335 337 338 339 340 340 336 331 327 325 325 328 330 329 328 329 336 338 332 323 318 316 317 318 318 319 320 322 324 325 326 328 328
352 352 353 353 352 352 352 349 346 345 349 351 352 353 354 355 355 355 355 355 353 351 350 346 344 343 341 337 338 341 342 341 338 337 343 350 350 346 342 341 343 342 342 341 340 340 340 340 340 337 337 336 335 334 334 335 338 339 339 336 331 323 319 321 322 321 319 319 326 329 322 316 317 319 320 321 322 323 324 325 326 327 328 329 329
352 353 352 352 352 352 351 351 349 345 345 348 351 352 353 354 354 353 354 354 353 351 350 349 348 347 344 339 339 340 342 342 340 339 340 341 345 344 339 339 342 340 339 339 339 339 339 339 339 338 336 337 336 335 332 331 332 334 335 335 333 325 317 317 317 317 316 316 317 319 318 319 321 322 323 323 324 325 325 327 328 328 329 329 329
353 352 352 352 352 352 351 351 351 349 345 344 346 348 350 352 352 352 354 355 354 352 351 349 349 349 347 341 339 339 341 342 340 339 339 339 342 343 338 338 340 339 338 339 338 338 338 337 338 337 337 336 336 335 333 331 328 327 327 327 326 322 318 317 317 315 316 316 317 319 321 322 323 324 324 324 325 325 327 328 328 329 329 329 329
353 353 352 352 351 351 352 351 351 351 348 345 342 344 347 350 351 352 355 355 355 353 351 350 349 349 349 344 340 338 339 340 340 340 339 339 341 341 338 338 340 339 338 338 338 338 337 337 337 337 336 337 337 336 335 334 330 326 325 323 322 321 319 319 318 317 318 319 320 322 323 324 324 325 325 325 326 327 327 328 328 329 329 329 329
353 353 351 351 351 351 351 351 351 351 351 349 345 343 345 347 348 352 356 356 356 354 352 351 349 348 348 346 344 341 339 338 338 340 340 339 339 340 338 339 340 339 339 339 339 339 339 338 338 338 337 337 337 337 337 335 334 330 327 325 324 323 322 321 321 321 321 322 324 324 325 325 326 326 327 327 327 328 328 329 329 329 329 329 329
353 352 351 351 350 351 351 351 351 351 351 351 348 346 346 346 348 352 355 356 356 355 354 353 351 350 350 348 347 345 343 340 338 338 340 340 339 339 339 340 339 338 338 340 339 339 340 339 339 339 338 339 337 337 337 336 336 335 332 329 328 327 326 325 324 324 324 324 325 326 326 326 326 327 327 328 328 328 328 328 329 328 329 329 328
353 352 352 351 350 350 350 350 351 351 351 352 351 349 347 347 348 351 353 355 356 357 356 355 354 352 351 350 349 347 346 343 339 337 338 340 340 340 339 342 345 342 338 339 338 338 340 339 339 339 338 339 337 336 336 336 336 336 335 334 333 332 331 330 329 326 326 327 327 327 326 326 327 327 328 328 328 328 328 328 329 329 328 329 328
352 352 352 351 350 351 351 351 351 351 351 352 352 351 348 348 349 351 352 353 356 357 357 356 355 354 353 352 351 351 350 347 342 337 337 338 339 341 339 341 346 347 347 348 342 338 338 338 337 338 337 337 336 336 335 336 335 336 336 335 335 335 334 334 332 329 328 329 330 330 329 328 328 328 328 328 328 328 328 329 328 329 328 328 328
351 352 352 351 351 350 351 351 351 351 351 352 353 352 350 349 349 351 352 353 355 357 357 357 356 355 354 353 353 353 352 350 346 341 339 339 338 339 340 339 341 346 352 356 348 338 337 338 337 337 336 336 336 335 335 335 335 336 335 336 335 335 335 335 335 334 332 332 332 333 332 331 330 329 329 330 330 330 330 330 329 329 329 328 328
350 350 350 351 351 350 351 351 350 351 350 351 352 353 352 350 350 351 352 353 355 356 357 357 357 356 355 355 354 355 354 353 350 346 341 342 341 339 339 339 340 341 344 349 347 340 337 338 337 337 337 336 336 336 335 335 335 335 336 335 335 335 335 335 335 335 334 334 334 334 334 334 334 333 332 332 332 333 332 332 331 330 330 329 329
350 349 349 350 350 351 350 351 351 351 350 351 351 353 353 352 351 352 352 353 354 355 355 357 357 357 356 356 356 356 356 355 354 351 346 343 343 341 341 340 339 340 339 341 344 342 337 338 338 337 338 337 337 337 336 335 335 335 335 336 336 335 335 335 335 335 336 335 335 335 335 335 335 335 335 334 334 333 334 333 333 333 332 331 330
350 350 350 349 349 350 350 350 351 351 351 350 351 352 353 353 353 352 352 353 354 354 354 355 356 357 357 357 356 356 356 356 356 355 351 347 344 342 342 342 339 339 339 338 340 341 339 339 339 339 340 338 338 338 337 337 337 336 336 337 336 336 336 336 335 335 336 336 335 336 336 336 336 336 336 335 334 334 334 334 335 334 334 333 332
350 350 350 349 349 349 350 350 351 350 351 350 351 352 353 353 354 353 353 354 354 354 354 354 354 355 356 357 357 357 356 357 356 356 356 353 349 345 342 342 341 340 340 339 339 340 341 340 340 341 340 339 339 339 338 338 337 337 336 337 336 337 336 336 335 336 336 336 336 336 336 336 336 337 336 336 335 334 335 335 335 335 334 334 333
351 350 350 350 349 349 350 350 350 351 351 351 350 352 353 353 353 354 354 354 354 355 355 355 355 354 355 356 356 356 356 357 356 356 356 355 353 351 346 343 342 340 339 340 340 340 341 341 341 340 341 341 340 340 339 339 338 338 338 338 338 337 337 337 336 336 336 336 336 336 335 336 336 336 336 336 336 335 335 335 335 336 335 335 334
350 350 350 350 350 350 350 351 351 351 351 351 351 352 353 354 353 353 354 354 355 355 355 355 355 354 355 356 354 355 356 356 356 356 356 356 355 354 351 348 344 342 340 340 340 340 340 341 341 340 341 341 341 340 340 339 339 339 339 339 339 338 338 337 338 337 337 337 337 337 336 335 335 336 337 337 337 336 335 336 336 336 336 335 335
350 350 350 350 351 351 351 351 351 352 351 351 352 352 352 352 353 353 353 354 354 354 354 355 355 356 356 355 354 355 356 356 356 355 355 356 355 354 353 352 349 346 343 341 340 341 341 341 341 340 341 341 341 341 341 340 340 340 339 340 339 340 339 339 338 338 337 337 337 337 337 336 336 336 336 337 337 337 336 336 336 336 336 336 336
350 351 351 351 351 351 352 351 351 352 351 352 352 352 352 353 353 353 354 354 354 354 355 354 355 356 356 356 355 355 356 355 355 354 354 355 355 353 353 352 351 350 347 344 341 340 340 340 341 340 340 340 341 341 341 341 340 340 340 340 340 340 340 340 339 339 338 338 338 337 338 337 336 336 336 336 336 337 337 336 337 336 336 336 336
351 351 351 352 352 352 352 352 352 352 352 353 353 353 354 353 353 353 354 354 354 355 355 355 355 355 355 356 356 356 356 355 355 354 354 354 353 353 352 352 352 351 349 347 345 342 340 340 340 340 340 340 340 341 340 341 341 341 341 341 341 341 340 340 340 339 339 338 338 337 337 338 338 337 336 336 336 336 336 336 337 336 336 335 335
350 350 351 351 352 352 352 352 353 352 352 353 353 353 354 354 354 354 354 355 354 355 355 355 355 355 355 355 355 356 355 355 355 354 354 353 353 353 352 352 351 350 349 349 347 344 343 341 341 341 341 340 340 340 340 340 340 340 340 341 341 340 340 340 340 340 340 339 338 337 337 338 338 338 337 336 336 336 337 337 337 337 337 336 335
350 351 351 351 351 351 352 352 353 353 353 354 354 354 354 354 354 354 354 355 355 355 356 356 356 356 356 355 356 355 356 355 355 354 354 354 353 353 353 352 351 350 349 348 347 346 344 342 342 342 342 341 341 340 340 339 340 340 340 340 340 340 340 340 340 339 339 339 339 338 337 337 338 337 337 337 336 336 337 337 337 338 338 337 336
351 351 351 351 351 351 352 352 353 353 353 354 353 353 353 354 354 354 355 355 355 355 356 356 356 356 356 356 356 356 356 355 355 355 354 354 354 354 354 353 352 351 350 349 347 346 345 343 342 342 342 342 341 341 341 340 340 341 340 339 339 339 340 339 339 340 339 339 339 339 338 338 337 338 338 338 337 337 338 337 337 337 337 338 337
351 352 352 352 351 351 352 352 353 353 354 354 353 352 352 353 353 354 354 355 355 355 355 356 356 356 356 356 356 356 356 356 356 355 356 356 356 355 355 354 353 353 351 349 347 347 345 344 343 343 342 342 342 342 342 342 342 341 341 340 339 339 340 339 340 340 340 340 339 339 339 338 338 338 338 338 337 337 338 338 339 338 338 338 338
352 352 352 352 352 352 352 353 353 353 353 353 352 353 352 353 354 354 355 355 355 355 355 355 355 356 356 356 356 356 356 356 356 356 356 356 356 356 356 356 355 355 353 351 350 348 347 346 345 345 344 344 344 343 343 344 344 343 342 341 340 339 339 339 340 341 342 342 340 339 339 339 339 338 337 337 337 336 337 337 337 339 338 338 338
352 352 351 351 352 352 352 353 353 353 353 353 352 353 354 354 354 354 354 355 355 355 355 355 355 355 356 356 356 356 356 356 356 357 356 357 357 357 356 356 357 356 356 354 353 352 350 349 348 348 347 346 346 346 345 345 346 345 344 342 341 340 340 340 340 341 343 343 340 338 340 340 340 338 338 338 337 337 336 335 335 337 338 339 339
352 351 352 352 351 352 351 352 352 352 353 353 353 354 353 354 354 355 355 355 355 355 355 355 356 356 356 356 356 357 356 356 357 357 357 357 357 357 357 357 357 357 357 356 356 355 354 352 351 350 350 348 348 348 348 348 347 345 344 343 342 341 340 340 340 341 342 342 340 338 340 340 340 338 339 339 338 338 337 337 336 336 337 338 339
352 352 352 352 352 352 352 352 352 352 352 352 352 352 353 354 354 355 355 355 355 355 356 356 356 356 356 356 357 357 356 357 357 357 357 357 357 357 357 357 357 357 357 357 357 356 356 353 352 352 351 349 350 352 351 348 347 346 345 345 344 342 342 341 341 342 342 341 340 339 339 340 340 339 339 340 340 339 339 339 337 337 337 338 339
353 353 352 352 352 352 352 352 352 352 351 351 351 352 352 353 354 354 355 355 356 356 356 356 356 356 356 356 357 357 357 357 357 357 357 357 358 357 357 357 357 357 356 357 357 356 355 353 351 352 352 352 352 353 352 349 348 347 347 346 345 344 342 340 341 342 342 341 340 339 339 340 340 339 339 340 340 340 340 340 339 338 338 338 338
353 353 353 353 353 352 353 353 352 352 352 352 351 351 351 352 353 354 354 355 355 355 355 355 355 356 356 356 357 357 357 357 357 357 357 357 357 358 358 357 357 357 357 357 357 356 353 351 352 354 354 354 354 353 354 353 351 349 347 345 345 344 341 340 341 342 341 341 341 339 338 340 340 340 340 340 340 340 340 340 340 339 339 338 337
353 353 353 353 353 352 353 353 352 353 353 352 352 352 351 352 352 352 353 354 354 354 354 354 354 355 355 355 356 356 356 357 356 356 357 358 358 358 358 357 358 358 357 357 357 356 354 354 356 356 356 356 355 355 356 354 353 350 346 343 344 344 342 341 341 341 342 342 341 340 339 339 340 340 340 340 340 340 340 340 340 340 339 339 338
354 354 354 353 353 353 353 353 353 353 353 353 353 352 352 352 352 352 352 352 353 353 354 354 354 354 354 354 355 355 356 356 356 356 357 357 358 358 358 358 357 357 357 357 356 355 355 355 356 356 355 354 354 354 354 353 354 352 347 345 347 346 343 341 341 342 342 343 343 342 339 339 340 340 340 341 340 339 340 340 340 339 339 339 338
355 355 354 354 354 353 354 354 353 353 353 353 353 353 353 353 353 353 353 352 352 353 353 353 354 354 354 354 355 355 355 356 356 356 357 358 358 358 357 357 357 358 358 354 351 351 352 352 352 352 351 351 351 351 351 350 350 350 349 348 348 346 343 343 342 341 341 342 345 345 342 340 341 340 340 341 340 340 340 339 339 339 339 339 339
Wind_Speed
6 5 4 4 3 3 3 3 2 2 2 2 1 1 1 1 1 2 3 3 3 2 3 3 3 4 4 4 4 5 5 6 5 4 4 4 3 3 4 4 5 5 5 5 5 5 5 5 5 4 4 4 4 3 3 3 2 2 2 2 2 2 2 2 2 2 1 1 1 0 0 1 2 2 3 3 4 5 5 5 6 7 7 8 8
6 5 5 5 4 4 4 3 3 3 3 2 2 2 2 2 2 4 4 4 3 3 4 2 3 4 4 4 5 5 6 7 6 4 5 5 3 3 5 4 5 5 4 5 4 4 4 4 5 5 4 4 4 4 3 3 3 3 2 2 2 2 2 2 2 2 2 2 2 1 1 2 2 3 3 4 4 5 7 7 7 8 8 8 8
7 6 6 6 5 5 4 4 4 3 3 3 3 2 2 2 3 4 4 3 2 2 3 2 3 4 4 5 5 6 7 8 7 6 5 5 4 4 6 5 5 5 4 4 4 3 3 4 5 5 5 4 4 4 4 5 5 4 3 3 3 3 3 2 2 2 2 2 3 2 2 3 3 4 4 5 6 7 7 8 8 8 8 8 8
8 7 7 7 6 6 5 5 4 3 3 3 3 3 3 2 3 4 3 3 2 1 2 2 3 5 5 6 6 6 7 7 7 6 5 5 4 5 6 6 5 5 5 4 4 4 4 5 5 5 4 4 4 4 5 6 5 5 5 4 4 4 3 3 3 3 3 3 3 3 3 4 4 4 5 6 7 7 7 7 7 7 8 8 8
9 8 8 7 7 7 6 6 4 4 4 3 4 4 4 3 4 5 5 4 2 1 2 2 2 5 6 6 6 6 6 6 7 6 5 5 4 5 7 7 6 6 6 5 5 4 5 5 5 5 4 4 5 4 5 5 5 5 6 5 5 5 5 5 4 4 4 4 4 4 4 5 5 5 6 6 7 7 7 7 7 8 8 9 9
9 9 8 8 8 8 8 7 5 5 5 5 4 4 5 4 4 5 4 3 2 2 3 2 3 4 6 7 8 7 7 6 6 6 5 5 5 5 6 7 7 7 6 6 6 5 6 6 6 6 5 5 5 5 5 5 5 5 5 6 7 7 6 6 5 5 5 5 5 5 6 6 6 6 7 7 8 7 7 8 8 9 9 9 9
10 10 9 10 10 10 9 7 6 6 6 6 5 5 5 5 4 4 4 2 1 2 3 3 4 6 8 10 11 10 9 8 7 6 6 5 5 5 6 6 6 6 6 6 6 6 6 7 7 7 6 6 6 5 6 5 5 5 5 5 7 8 7 7 7 7 7 7 7 7 7 7 7 7 8 9 9 8 8 8 8 9 10 10 10
11 11 11 11 11 11 10 8 7 7 6 6 6 6 5 5 4 5 4 2 1 1 3 5 6 7 8 9 10 11 10 9 8 7 6 5 6 6 6 5 6 6 5 5 6 6 6 7 7 7 6 6 7 6 6 6 5 6 6 6 7 8 8 8 8 8 8 8 9 9 9 8 9 9 9 10 10 9 8 8 9 10 10 10 11
12 12 11 11 11 11 10 9 8 8 7 7 7 6 6 6 5 5 5 2 1 3 5 6 6 6 5 4 6 9 10 9 8 7 6 6 6 7 6 5 5 5 4 4 5 5 5 6 6 7 7 7 7 7 7 6 6 7 6 6 6 7 8 8 9 9 9 9 9 10 9 9 10 10 10 10 10 9 9 9 9 10 10 10 10
14 13 12 11 11 11 10 9 8 8 8 8 8 7 7 7 5 5 4 2 2 4 5 6 5 4 3 1 3 6 8 8 8 8 7 6 7 7 6 6 5 5 5 4 4 4 5 5 5 6 7 7 7 7 7 7 7 7 7 7 7 7 7 8 9 9 9 10 10 10 10 9 10 10 10 10 10 9 9 9 9 9 9 9 9
15 14 13 11 12 11 10 9 9 9 9 9 8 8 8 7 5 4 4 2 3 4 6 7 5 3 2 2 3 5 6 7 7 8 7 7 7 7 7 6 6 6 5 4 4 4 4 4 4 5 6 7 7 7 7 7 7 8 7 7 7 7 7 8 9 9 9 9 9 9 10 9 9 10 10 9 9 9 9 10 9 9 9 9 10
17 16 14 13 13 12 11 10 10 10 10 10 9 8 8 8 6 4 3 3 4 3 5 8 7 5 3 3 3 4 5 6 7 7 7 7 7 7 7 7 7 6 6 5 4 4 4 4 5 5 6 7 7 7 7 8 8 8 8 7 7 7 8 8 8 8 9 9 9 9 9 9 9 9 9 9 9 9 9 9 9 9 9 9 8
18 18 17 16 15 13 12 12 11 11 10 10 9 8 8 8 7 4 3 3 3 2 5 8 8 6 4 4 4 5 5 6 7 7 7 7 6 7 6 7 7 6 6 6 6 5 5 5 5 6 6 6 7 8 8 8 8 8 8 8 7 7 7 7 8 8 8 8 8 8 8 9 9 9 9 9 9 9 9 9 9 8 8 7 5
19 19 19 18 17 16 15 14 13 12 11 10 9 8 8 8 7 5 4 4 3 3 7 8 6 5 3 1 2 4 5 7 8 8 8 7 6 6 7 7 6 6 6 6 6 6 6 5 6 6 6 6 7 8 9 9 9 9 9 8 8 7 7 7 7 8 8 8 8 8 8 9 9 9 9 9 9 8 8 9 8 7 6 5 4
20 20 20 20 19 18 17 16 14 13 12 11 10 9 9 9 8 6 5 5 4 5 9 8 5 5 3 1 1 2 3 6 8 9 9 8 8 7 7 7 6 6 6 7 7 7 6 6 6 6 7 7 7 8 8 9 8 8 8 8 8 8 8 8 8 8 8 7 7 8 8 9 9 9 8 8 8 8 7 7 6 4 4 4 4
20 21 21 21 21 20 19 18 16 14 13 12 11 10 9 9 9 8 6 7 7 7 11 8 5 7 4 2 1 1 2 3 5 8 8 9 9 9 9 9 8 7 8 7 7 7 7 7 7 7 7 7 8 8 8 7 7 7 8 8 8 9 9 8 8 8 8 7 7 8 9 9 9 8 8 7 7 6 5 4 3 3 4 4 4
20 22 21 21 21 21 22 21 19 17 14 13 12 11 10 9 9 8 7 8 9 9 12 10 7 9 7 2 1 0 1 1 3 5 7 9 9 10 10 10 10 9 9 9 8 9 9 8 8 7 7 8 8 8 8 7 6 7 8 8 8 9 9 9 9 9 8 7 8 8 9 10 8 8 7 6 6 4 3 3 2 3 3 3 4
20 22 21 20 20 19 21 22 21 19 16 14 13 12 11 10 9 9 8 8 10 10 12 13 10 11 12 7 3 2 2 1 0 2 5 8 11 12 12 12 12 12 12 10 10 10 10 9 9 8 8 8 8 8 7 7 7 7 7 7 8 9 9 9 10 10 8 7 8 9 9 9 8 7 6 4 4 3 2 2 2 2 2 3 4
21 22 22 21 19 17 18 20 21 20 18 16 15 13 12 10 9 9 9 8 10 11 11 13 11 11 14 12 7 6 5 4 3 1 2 5 9 12 13 13 14 14 14 13 12 12 11 11 11 10 9 9 9 9 8 8 7 7 7 7 7 8 8 9 10 10 9 8 7 8 8 7 6 5 4 3 3 3 2 2 1 1 1 2 3
21 22 22 22 19 17 17 18 20 21 20 18 16 15 13 12 10 10 10 9 10 12 11 11 10 10 12 14 12 9 8 7 7 5 2 0 4 7 11 14 15 16 16 15 14 13 13 13 11 11 10 10 9 9 9 9 9 9 8 7 7 8 8 8 8 8 9 8 7 8 8 6 5 4 4 3 3 3 2 2 1 1 1 2 3
23 22 23 23 21 19 18 18 19 21 22 21 18 16 14 13 12 11 11 11 11 12 12 12 11 10 11 14 14 10 8 8 9 8 5 2 2 2 7 11 13 16 17 16 15 14 14 14 13 12 11 10 10 9 9 10 10 10 9 8 8 8 8 8 8 8 8 8 8 8 7 6 5 5 4 4 4 4 3 2 2 2 2 3 4
25 24 23 24 23 21 20 19 18 20 22 23 20 18 16 15 13 12 11 11 12 13 14 14 13 11 11 12 13 10 8 6 8 9 7 4 3 3 7 9 9 13 15 15 15 14 14 14 14 13 12 11 10 10 10 9 10 10 10 9 9 9 9 8 8 8 8 8 7 7 7 6 6 6 6 5 5 4 4 3 3 3 4 5 6
26 25 24 24 24 23 23 20 19 19 21 22 22 20 19 17 14 13 12 12 12 13 14 15 14 13 12 13 13 12 10 8 9 11 10 7 4 4 8 10 10 13 13 13 13 13 14 14 15 15 14 12 11 10 10 10 9 9 9 9 9 9 8 8 8 8 8 8 8 8 8 7 7 7 7 6 6 5 5 5 5 5 6 7 8
26 26 25 25 25 24 24 23 21 20 20 21 22 22 20 18 16 15 14 13 12 13 14 16 16 15 14 14 14 15 15 14 12 12 13 13 9 6 7 7 8 12 14 14 14 14 15 15 15 15 15 14 13 12 11 11 10 9 9 9 9 9 9 9 9 9 9 9 9 9 9 9 8 8 8 8 7 7 7 7 7 7 8 9 10
27 27 27 26 25 25 24 24 23 21 20 20 21 22 21 20 18 16 15 14 13 14 15 16 17 17 16 15 15 16 17 17 16 14 14 14 12 8 8 6 6 9 10 11 13 13 14 15 16 16 16 16 15 15 14 13 12 11 10 10 10 10 10 10 10 10 10 10 11 10 10 10 10 10 10 10 9 9 9 9 9 10 10 11 12
30 30 29 27 26 25 25 24 24 22 20 19 20 21 21 20 19 17 16 15 14 14 15 16 17 18 18 17 16 17 17 17 18 17 15 13 12 10 8 6 6 8 8 8 10 11 12 14 15 15 16 17 16 16 16 16 15 14 13 12 11 11 11 12 12 12 12 12 12 12 12 12 12 12 12 12 12 12 12 12 12 12 12 12 13
32 31 29 28 27 26 25 25 24 23 22 20 20 20 21 21 20 18 17 16 15 15 15 16 17 19 19 19 18 17 17 18 18 18 17 15 14 13 10 5 4 5 6 7 10 12 15 16 15 14 15 16 16 17 17 17 17 16 16 15 15 14 13 13 14 14 14 14 14 14 14 14 14 14 15 15 15 15 14 14 14 14 14 14 14
32 31 30 29 28 26 26 26 25 24 23 21 20 20 20 21 20 20 19 18 17 17 16 17 18 19 19 19 19 18 18 18 18 18 17 17 15 15 12 8 5 3 3 4 6 9 11 11 10 10 11 12 14 15 16 17 18 18 18 18 18 17 16 15 15 16 16 16 16 16 16 16 17 17 17 17 17 17 17 17 16 16 16 16 16
32 31 31 30 29 27 26 26 26 25 24 23 22 21 21 21 21 21 20 19 18 18 18 18 18 19 19 20 20 20 19 18 19 18 17 17 17 16 15 12 9 4 2 2 3 5 8 10 9 8 8 9 10 12 15 16 16 17 19 20 20 20 20 19 19 18 18 19 18 18 18 18 18 19 19 19 19 19 19 19 18 18 18 18 17
31 31 31 30 30 28 27 26 27 26 25 24 23 22 21 22 22 22 21 19 19 19 19 19 19 19 21 21 21 21 20 19 19 18 18 18 18 18 17 15 14 10 6 4 5 9 12 13 12 10 11 12 12 12 14 15 16 17 19 21 22 22 22 22 22 22 22 21 21 21 20 20 20 20 21 21 21 21 21 20 20 20 19 19 19
31 31 31 30 30 29 29 28 28 27 26 25 25 24 23 23 23 23 22 21 21 21 21 20 20 20 21 22 22 22 21 20 20 19 19 19 19 19 19 18 18 16 13 8 5 11 14 14 16 17 17 18 18 16 17 17 17 18 20 22 23 23 24 25 25 25 25 25 25 24 23 23 23 23 23 23 23 23 23 23 22 21 21 21 20
31 31 30 30 30 30 30 29 29 29 28 27 27 26 25 25 24 24 23 23 23 23 22 22 22 22 23 23 24 24 22 22 22 21 20 20 20 21 20 20 19 18 17 13 9 16 23 23 24 27 25 23 22 21 21 20 19 20 21 22 23 24 26 27 27 27 28 28 28 27 26 26 25 25 25 25 25 25 25 24 24 23 23 22 22
32 31 31 31 31 30 30 30 30 30 30 30 29 28 27 27 26 26 25 25 25 24 24 24 24 24 25 26 26 25 24 24 24 23 22 22 21 22 22 21 21 20 19 17 14 19 28 28 27 29 27 24 24 24 23 23 22 21 22 23 23 25 26 27 28 28 28 29 29 30 30 29 28 27 27 27 27 27 26 26 26 25 25 24 24
32 32 32 32 32 31 30 30 30 31 31 30 30 29 29 28 28 27 27 27 26 26 26 26 26 26 27 28 28 27 26 26 26 25 25 24 23 23 23 23 23 23 22 22 20 18 25 29 27 27 26 24 25 26 25 24 24 23 24 25 25 26 27 28 29 29 29 29 30 31 32 31 31 30 29 28 28 28 28 28 27 27 27 26 25
33 33 33 33 32 32 31 31 31 31 31 31 30 30 30 30 29 29 28 28 28 28 28 28 28 27 28 29 30 29 28 27 28 28 27 26 26 25 25 25 25 26 25 25 23 22 24 28 27 25 25 24 25 26 25 24 24 24 25 27 27 28 29 30 31 31 31 30 31 31 32 33 33 32 31 30 29 29 29 29 28 28 28 28 27
33 34 33 33 33 32 32 32 32 32 32 31 31 31 31 31 30 30 29 29 29 29 29 29 29 28 29 30 31 30 28 28 29 29 28 28 28 27 27 27 27 28 28 27 27 27 26 28 30 29 26 26 27 27 26 25 25 25 26 27 28 29 30 31 32 33 33 33 32 32 33 33 33 34 33 32 31 30 29 29 29 29 29 29 28
33 33 33 33 32 33 33 34 34 34 33 33 32 32 32 32 31 31 31 30 30 30 30 30 30 30 30 31 32 30 28 29 30 30 30 29 29 28 28 28 28 28 28 28 29 29 28 29 32 32 29 29 29 29 28 27 27 27 28 29 30 30 31 32 33 34 34 34 35 35 35 34 33 34 35 34 33 31 30 29 29 29 29 29 29
34 33 33 33 33 34 35 35 35 35 34 33 33 33 33 32 32 32 32 32 32 31 31 31 31 31 31 32 32 30 29 30 31 31 30 29 29 29 28 29 28 28 28 28 28 29 29 30 32 31 30 30 29 29 29 28 27 28 29 32 32 31 32 34 34 34 34 35 36 37 37 37 36 35 35 36 35 33 32 31 30 29 29 29 29
35 34 34 33 33 34 35 35 35 35 34 34 34 34 33 33 33 33 33 33 32 32 32 32 32 32 33 33 32 31 31 31 32 31 30 29 30 30 30 30 28 27 27 28 28 28 29 29 30 30 30 28 27 27 28 26 25 27 29 30 32 32 32 33 34 34 34 34 36 37 38 38 38 37 37 37 37 35 34 33 32 31 30 30 30
36 36 35 35 34 34 35 35 35 35 34 34 34 34 34 34 34 34 34 33 32 32 32 33 33 33 34 34 34 33 32 32 33 32 32 31 31 31 32 31 28 27 27 27 28 28 28 28 28 29 29 26 24 25 26 24 23 27 29 28 29 31 31 31 33 34 33 34 35 36 37 38 39 39 38 38 39 38 37 36 36 34 33 32 31
36 36 35 35 34 34 34 35 34 34 34 35 35 35 35 35 35 34 34 33 32 32 32 32 32 33 34 34 34 34 33 34 34 34 34 33 32 33 34 32 29 27 27 27 26 27 27 26 25 26 26 24 22 23 24 24 25 30 30 26 27 30 30 31 34 35 34 33 34 35 36 37 38 39 39 40 40 40 40 40 39 39 37 35 34
36 35 34 34 34 34 34 34 33 33 34 35 36 37 36 36 35 34 33 33 32 32 31 31 32 33 33 33 34 34 34 34 34 34 35 34 34 35 36 35 32 29 27 25 24 26 26 25 24 24 23 23 22 22 25 28 30 31 31 27 27 29 27 27 32 36 35 33 33 36 36 35 36 37 38 40 42 42 43 43 43 42 41 39 37
35 34 34 33 34 34 34 34 34 34 35 36 37 37 37 36 35 34 33 33 32 32 32 32 33 33 33 33 34 34 34 34 34 35 35 35 35 36 37 37 36 33 30 26 25 25 25 25 26 23 21 24 25 25 28 32 33 33 33 30 27 27 25 22 23 30 34 31 29 33 34 33 33 36 38 39 40 41 43 44 43 43 43 42 40
35 35 34 34 35 35 34 34 35 35 36 37 37 37 37 36 35 34 34 33 32 32 32 32 33 33 33 34 35 35 35 35 34 34 35 35 35 36 37 38 37 37 36 34 32 30 28 27 27 24 22 25 29 29 30 33 36 35 33 32 30 28 27 25 24 29 34 32 27 28 33 36 34 35 39 41 41 41 41 42 42 42 43 43 42
36 35 35 36 36 36 36 35 36 36 37 37 38 38 37 37 36 35 34 34 33 32 32 32 33 33 33 34 34 35 35 34 33 34 34 34 35 36 36 37 37 37 36 37 37 37 34 31 29 28 27 26 31 37 38 36 36 34 32 33 31 28 28 29 29 33 36 33 27 25 31 38 35 31 37 42 40 39 41 41 41 42 42 43 43
35 35 36 36 37 37 37 37 37 37 38 38 38 38 37 36 35 34 35 35 34 34 33 33 34 34 34 33 33 35 35 33 33 33 33 34 35 35 34 35 36 36 36 37 37 36 37 36 34 34 33 31 38 47 45 37 35 34 33 34 32 27 27 28 30 35 38 37 33 26 27 37 35 28 35 42 39 39 42 42 42 41 41 43 44
36 37 37 37 37 37 37 37 37 38 39 39 38 38 38 36 34 33 34 34 35 35 35 35 35 36 35 33 34 35 35 34 33 33 34 34 34 34 32 31 33 34 34 36 36 34 33 31 32 36 38 39 44 49 47 40 37 37 35 37 38 29 19 21 32 42 43 41 37 29 25 34 36 29 34 41 39 39 42 43 42 42 41 41 43
36 37 37 36 36 37 37 36 36 38 40 40 39 39 38 36 33 32 33 34 35 35 36 36 37 37 36 34 34 36 36 35 35 35 36 35 35 34 32 31 33 33 34 36 37 35 29 27 33 41 42 42 43 45 46 44 42 40 33 34 40 31 16 18 33 43 42 40 39 31 26 32 35 30 32 37 35 36 42 43 43 43 41 40 41
35 35 36 36 36 37 36 36 37 39 41 40 39 39 38 35 33 33 33 34 35 35 36 37 37 37 36 36 35 36 36 37 37 38 37 36 37 36 34 33 32 31 33 36 33 29 26 28 38 45 43 41 41 42 44 44 44 44 36 32 39 34 19 17 24 33 38 39 39 32 26 32 36 32 32 36 34 34 39 42 44 44 42 40 40
36 36 36 35 36 36 36 37 38 39 40 39 38 38 37 35 34 34 34 35 35 35 35 36 36 36 36 36 36 36 37 38 38 39 38 36 36 35 34 33 30 28 32 33 27 24 26 31 38 40 37 37 37 38 40 39 39 42 40 40 44 38 24 18 22 30 33 37 43 36 27 33 40 34 32 32 30 35 41 42 42 42 42 41 41
36 36 35 34 34 35 36 37 37 38 39 39 38 37 36 34 34 34 34 34 34 34 34 34 35 35 35 35 36 36 38 39 39 39 37 36 35 33 32 31 29 28 26 20 16 18 21 26 31 32 29 30 32 33 36 36 35 37 39 43 45 40 31 26 27 25 19 26 43 39 27 32 37 34 30 23 16 24 37 40 39 41 43 44 43
Wind_Direction
201 197 198 192 183 195 206 226 245 256 254 245 260 261 270 281 285 299 301 293 274 257 280 278 269 273 274 282 292 298 300 297 292 290 297 297 279 224 209 214 216 216 205 199 201 197 190 197 202 190 190 186 181 190 181 173 168 157 154 154 156 153 159 165 163 167 175 190 173 172 350 360 342 335 337 342 346 343 338 337 342 341 339 341 342
212 215 220 218 216 220 223 235 242 239 242 245 257 261 279 302 309 309 314 309 298 281 279 280 270 257 253 267 281 289 290 292 289 284 285 284 275 226 210 217 219 222 210 202 207 198 192 206 211 205 209 205 201 210 203 202 206 200 192 185 187 186 199 212 204 198 201 210 216 243 286 304 310 315 322 328 328 327 328 330 333 333 335 337 339
223 229 236 239 239 239 240 243 236 233 241 242 245 247 262 298 302 304 316 307 296 280 273 277 260 240 238 251 266 280 283 285 284 281 281 280 275 232 208 210 218 227 223 217 220 203 205 222 220 218 224 218 215 225 223 222 220 216 218 213 212 214 226 243 243 237 229 228 237 252 276 287 295 305 308 312 316 318 322 327 329 329 333 336 337
230 235 242 247 249 252 251 246 237 233 243 243 240 242 247 264 287 303 324 311 290 249 263 294 260 235 233 244 255 274 280 279 279 279 282 279 276 245 216 209 212 221 224 223 227 219 221 233 228 223 230 231 233 241 236 235 235 229 228 231 231 230 236 244 244 244 247 246 252 259 269 279 286 295 300 306 311 312 317 323 327 327 329 331 332
232 236 243 249 254 257 256 250 241 239 245 249 250 250 256 259 277 302 322 326 328 302 299 309 259 242 243 249 254 265 274 271 271 276 280 275 267 252 227 216 212 218 224 224 231 235 237 241 239 232 230 236 245 249 242 241 244 240 234 238 240 238 242 247 246 247 254 260 263 266 271 278 285 293 297 298 301 305 310 316 320 323 326 327 328
234 238 246 254 258 259 257 252 246 249 251 253 260 260 269 273 274 299 318 328 342 321 306 288 255 257 258 260 256 260 267 263 263 269 276 269 253 246 234 224 220 225 230 230 235 241 248 253 253 247 236 237 247 251 252 250 251 251 246 246 246 244 245 249 254 249 249 257 258 262 266 271 278 284 287 291 298 303 306 312 317 321 323 325 326
236 243 251 258 260 259 255 251 247 250 252 254 265 271 280 288 285 301 314 320 349 315 287 275 274 275 270 264 257 257 259 257 256 261 271 266 246 236 232 230 230 234 238 239 243 248 256 261 264 262 250 246 253 256 264 261 253 254 255 255 254 253 253 251 256 256 251 254 257 259 262 267 272 276 282 290 297 302 306 311 315 319 322 324 325
238 245 253 260 259 255 251 247 244 246 250 256 266 276 287 293 294 309 318 330 354 286 261 265 275 278 272 264 257 252 252 254 253 256 267 265 248 236 231 234 237 241 246 248 253 258 263 269 270 273 265 257 260 259 264 266 258 260 265 267 266 264 262 258 259 260 256 258 263 266 269 273 276 279 285 292 297 303 308 311 315 320 323 324 324
237 243 252 260 257 250 247 244 242 243 247 255 263 274 285 287 290 303 310 322 301 266 258 263 275 285 289 273 251 244 245 251 251 254 264 263 252 243 237 240 241 242 249 256 261 266 269 273 271 272 269 262 261 258 262 271 270 271 272 272 274 271 268 265 265 267 267 268 268 270 273 275 279 283 287 291 298 303 305 310 316 319 321 322 324
235 238 248 258 252 245 244 242 241 243 245 252 261 268 277 280 285 294 296 290 282 265 250 258 271 289 306 282 226 231 240 247 250 256 265 267 258 251 250 250 250 249 255 263 265 267 268 271 269 267 268 268 265 260 257 266 270 271 270 266 266 268 268 267 270 275 280 278 273 273 274 276 282 287 290 293 299 303 303 308 312 314 317 319 320
233 234 243 253 248 238 236 238 240 242 242 247 254 259 264 267 269 279 281 276 284 262 231 235 239 242 258 222 209 220 234 240 246 259 271 276 266 258 258 258 260 258 261 272 269 271 276 278 277 268 266 268 269 266 259 260 266 272 275 271 267 268 269 269 271 276 279 279 278 276 277 280 284 288 292 296 299 300 300 305 309 309 311 312 314
232 234 241 249 247 235 231 236 242 243 242 245 251 256 262 264 262 263 263 264 278 258 216 212 202 192 201 217 231 232 235 236 241 259 273 279 274 265 264 263 266 264 262 265 261 268 286 293 295 280 269 268 269 270 267 262 262 267 272 275 274 273 272 271 273 276 277 277 278 277 279 280 283 287 292 294 294 297 302 305 306 305 307 310 313
234 237 241 246 245 236 231 235 241 243 244 249 253 258 264 264 262 259 247 238 253 240 199 193 184 178 193 220 250 251 242 243 247 259 269 273 273 266 266 268 267 268 266 262 259 266 279 289 297 290 277 269 267 268 268 268 266 265 266 268 271 273 274 274 275 278 280 281 279 279 281 283 285 287 289 290 291 299 304 302 299 304 314 320 325
236 239 242 245 245 239 235 235 239 242 242 248 250 253 258 256 253 255 242 219 223 208 184 179 175 174 176 207 281 276 259 256 255 261 268 269 268 261 260 265 266 270 269 265 265 269 273 278 285 289 283 273 269 268 269 271 270 269 269 267 267 267 267 270 273 277 280 282 281 279 282 288 291 291 290 291 294 299 300 298 301 312 329 343 357
236 239 242 244 245 243 238 236 239 241 240 243 245 246 249 248 246 250 245 215 201 192 183 175 175 167 122 47 333 323 289 271 261 260 267 269 267 263 258 258 262 266 264 265 268 271 273 275 278 282 282 276 274 273 272 273 272 272 273 272 268 264 261 263 269 272 275 279 277 276 281 285 289 292 292 293 295 295 293 297 312 331 347 3 18
235 238 241 243 246 245 241 238 239 242 240 240 243 244 245 247 243 242 242 219 199 193 190 184 187 178 139 52 28 22 318 286 275 263 266 270 266 265 262 258 258 260 264 269 273 276 276 276 279 281 278 276 278 277 273 271 271 270 270 269 266 264 263 264 265 266 272 277 274 274 279 282 284 288 290 289 289 293 296 305 329 348 356 7 14
234 236 239 242 247 247 243 240 241 243 240 237 241 246 249 250 246 242 243 226 209 203 200 204 218 205 189 147 84 341 251 283 303 268 261 266 265 263 262 259 257 258 263 271 277 280 285 285 286 287 281 274 276 278 275 270 266 261 262 266 267 269 269 266 264 264 268 273 273 275 281 285 283 281 280 279 281 290 304 315 331 343 352 4 11
235 236 237 240 247 249 245 242 243 242 238 236 238 243 249 252 252 248 248 236 219 212 210 217 230 227 221 221 227 247 235 190 46 290 268 262 261 262 260 259 259 259 262 269 277 279 285 290 292 293 290 280 273 271 270 270 268 262 265 269 269 272 274 268 264 263 264 264 265 270 276 280 277 272 272 272 274 278 284 303 321 339 356 4 10
236 237 237 239 245 248 246 243 242 240 236 237 238 242 249 252 256 254 252 245 228 222 220 220 228 234 230 229 244 265 257 220 197 217 304 265 258 258 256 255 258 261 262 267 274 277 279 284 290 296 299 293 281 270 263 263 267 265 267 272 270 271 271 267 263 262 263 260 257 261 265 268 271 272 271 265 264 261 260 275 298 326 358 3 5
237 240 238 239 243 246 247 245 242 239 236 238 241 244 249 251 255 255 252 251 240 234 231 224 227 234 228 228 245 264 257 237 229 219 172 285 276 263 256 254 255 258 262 265 268 270 272 275 283 291 298 299 293 280 267 260 262 262 260 266 271 274 271 267 264 261 262 262 253 252 257 263 269 272 268 261 258 251 246 244 243 283 320 334 337
235 239 239 239 241 244 246 246 244 242 239 240 244 245 247 250 254 255 252 252 251 246 242 237 238 243 241 236 239 250 252 245 238 222 199 216 264 271 258 255 257 257 257 259 262 262 263 265 271 278 286 293 296 293 280 265 261 259 255 258 266 271 271 266 264 261 260 262 255 251 255 260 264 267 262 255 250 244 240 241 248 272 294 312 318
233 237 238 238 241 242 245 246 246 246 242 242 244 246 247 249 254 258 255 253 254 252 249 246 247 252 255 246 236 238 245 241 228 216 207 221 237 259 257 249 253 260 259 260 261 262 262 261 261 264 269 278 289 295 290 278 269 263 258 257 260 264 266 263 259 257 257 257 256 255 255 256 259 260 258 253 246 244 243 251 265 281 296 305 309
231 234 236 237 239 241 243 245 247 248 246 245 245 247 249 251 256 260 257 254 252 252 252 249 250 253 255 251 245 244 246 249 243 228 217 217 227 254 256 248 248 258 267 270 268 267 266 262 259 259 260 264 272 282 286 283 275 269 263 258 257 259 260 259 254 250 250 251 251 253 253 252 253 252 253 252 248 249 252 258 271 282 292 298 303
228 232 234 234 236 239 241 243 245 247 247 246 246 247 250 253 257 258 256 256 252 251 251 249 249 253 255 254 253 255 256 260 264 254 240 236 237 249 257 255 251 260 270 274 273 270 266 264 261 260 259 259 261 265 270 273 271 267 263 257 257 259 259 257 253 247 245 246 246 248 250 250 249 248 249 250 251 252 256 261 270 279 286 293 299
225 229 230 231 234 236 239 240 242 247 249 248 247 247 249 252 253 254 254 254 254 252 251 249 248 250 255 259 260 262 263 263 264 264 258 249 244 251 260 258 256 268 278 279 277 275 271 268 265 261 260 258 258 259 260 263 262 259 257 255 255 259 260 257 253 249 245 245 246 246 248 248 247 248 248 249 251 253 256 260 266 273 281 287 294
226 229 230 230 233 236 239 241 243 247 250 250 249 247 248 249 249 250 251 253 255 256 254 252 250 249 252 258 262 264 265 267 264 260 259 253 245 246 254 260 265 272 282 284 278 276 278 279 274 264 260 258 256 256 256 258 259 257 255 253 252 253 257 256 253 251 248 248 248 248 248 247 246 247 248 249 250 252 255 259 264 269 275 281 287
230 231 232 232 234 237 239 242 244 247 250 251 251 249 247 247 247 249 250 253 255 256 256 255 253 252 252 255 260 263 265 268 268 261 257 259 259 256 255 259 276 280 281 280 276 275 280 284 282 271 260 258 256 253 253 255 257 258 257 255 254 252 253 254 253 250 248 248 249 250 249 249 248 248 249 250 251 253 255 258 262 267 271 276 282
233 234 234 234 236 238 240 242 243 246 250 251 252 251 248 246 247 249 250 251 253 255 257 257 256 254 254 256 260 263 266 268 269 263 258 262 265 264 259 251 250 281 302 287 279 282 287 287 286 280 266 258 257 254 253 254 255 257 256 256 256 256 254 253 253 250 247 247 247 249 250 251 252 252 252 253 254 254 256 258 261 265 269 273 277
235 236 236 236 237 238 241 242 243 245 249 251 252 252 250 248 247 249 250 252 254 255 256 257 258 257 258 260 261 265 268 267 267 264 261 263 264 263 263 257 247 245 284 300 277 274 288 291 287 292 291 280 270 261 255 256 258 258 258 258 258 258 258 255 254 252 249 249 249 249 250 251 252 253 254 255 255 256 257 258 260 263 266 270 273
236 237 237 237 237 238 240 241 242 245 249 252 253 253 252 250 249 250 252 254 256 257 258 258 259 259 260 261 263 266 268 268 268 266 263 263 264 263 265 263 256 249 244 268 288 276 280 289 287 293 307 308 301 286 271 265 263 260 260 261 260 260 261 259 257 255 253 252 251 251 252 252 252 253 254 255 255 257 258 259 260 262 264 266 269
235 236 237 238 238 238 238 240 242 244 248 252 253 254 253 251 250 251 252 255 257 258 259 260 260 260 261 262 263 266 268 270 270 269 266 264 263 264 264 263 261 258 253 250 274 278 274 282 289 292 301 304 302 297 289 283 275 266 263 264 264 264 264 262 260 258 256 255 254 254 254 254 254 254 254 255 256 257 258 259 261 262 263 264 266
235 236 237 239 240 240 239 240 241 243 247 250 252 253 253 253 252 253 253 254 256 259 260 260 260 260 261 262 264 266 268 270 270 270 269 267 265 263 263 263 261 260 258 245 242 269 273 276 283 286 289 293 292 290 290 289 285 278 272 270 270 269 266 265 264 262 260 258 257 256 255 255 255 255 255 255 256 257 257 258 260 262 263 264 265
234 235 236 238 240 241 241 241 242 243 246 248 250 251 252 253 253 254 255 255 256 258 260 261 260 260 260 262 264 266 267 269 270 270 270 269 268 265 262 262 259 257 255 246 241 264 275 277 278 281 284 285 285 285 286 287 287 284 281 279 277 274 272 271 270 268 266 263 260 259 258 257 256 256 256 255 255 256 257 257 259 261 262 263 264
233 235 236 238 239 241 241 242 243 244 246 248 249 250 250 252 253 253 254 254 255 257 258 260 261 261 261 261 263 265 266 267 268 269 270 269 268 266 263 261 259 257 255 251 246 255 271 275 275 277 280 280 280 282 284 285 288 287 284 282 282 281 280 278 276 275 274 271 267 264 261 259 258 257 257 256 255 255 256 257 258 260 261 262 262
232 234 236 237 238 239 241 242 243 245 247 248 249 249 250 251 252 253 253 253 254 255 256 259 261 261 261 261 263 265 265 266 267 268 269 269 267 266 265 263 261 261 259 256 252 251 264 275 277 277 279 279 280 283 285 285 286 284 281 281 282 281 282 281 280 280 279 277 274 271 266 262 259 258 258 258 257 256 255 256 257 259 260 260 260
230 233 234 236 237 238 240 241 243 244 246 247 248 249 250 251 252 253 254 254 255 256 257 259 261 261 261 262 264 265 264 265 267 268 267 267 266 265 264 264 263 263 263 260 258 257 261 272 276 277 279 280 281 284 285 284 283 281 280 280 279 278 279 279 278 279 278 277 276 274 270 266 262 259 258 258 258 258 256 256 257 258 258 258 257
229 231 232 234 234 236 238 240 242 243 244 245 246 248 249 250 252 253 254 255 256 257 258 260 261 261 261 263 264 264 264 264 266 267 267 266 266 265 265 265 264 264 265 263 262 260 259 264 272 276 279 281 282 283 283 283 283 282 281 280 279 278 278 277 275 275 276 275 273 272 270 268 264 261 258 257 257 258 257 256 256 257 257 256 254
228 230 231 232 233 234 237 239 241 243 244 244 245 247 248 249 251 253 253 254 255 256 258 259 261 261 262 264 264 263 263 265 266 267 267 267 267 267 266 266 266 265 265 264 264 262 260 261 268 274 277 279 280 281 282 282 281 281 281 281 279 277 276 276 275 275 275 274 273 272 271 269 267 263 260 258 257 257 257 255 254 254 255 254 253
227 229 229 231 232 234 237 238 240 242 243 244 245 245 247 248 250 251 252 253 253 255 257 258 260 262 263 264 264 263 262 264 267 268 268 269 270 270 270 269 267 265 264 265 265 263 262 263 266 271 275 278 279 280 283 283 280 277 276 276 277 277 276 276 276 277 276 275 274 274 273 271 269 266 263 261 259 257 257 255 254 253 252 252 251
227 228 229 231 233 234 236 237 239 240 241 242 244 244 245 246 247 249 250 251 252 254 256 257 259 260 262 264 264 263 263 265 267 269 269 269 269 271 273 271 267 264 263 264 264 263 263 262 265 270 274 276 278 280 282 282 277 275 275 271 271 276 277 277 278 279 277 275 275 275 273 270 268 267 264 262 260 257 256 254 252 251 250 250 249
227 228 229 231 232 234 236 237 238 238 238 240 242 243 244 244 245 247 248 249 250 252 254 256 258 259 260 262 263 263 263 265 267 269 270 269 268 269 272 272 267 265 263 261 261 262 262 262 263 268 272 274 275 278 279 276 272 276 279 273 268 274 278 278 278 279 276 273 272 271 271 269 267 266 264 262 260 258 256 253 250 248 247 247 246
227 228 229 230 231 233 235 237 237 237 238 240 242 243 245 245 245 246 247 248 250 251 253 255 257 258 260 261 263 264 265 265 267 268 268 269 268 268 271 271 267 264 262 260 260 261 262 263 263 266 268 271 273 274 275 276 277 277 276 270 266 270 274 274 277 280 278 273 267 265 268 269 266 263 263 262 261 259 256 253 250 247 246 245 244
226 227 228 229 231 233 235 236 237 237 239 240 242 244 245 245 245 245 247 249 250 251 253 255 257 259 260 262 264 265 266 266 267 268 268 269 268 269 271 272 269 265 260 258 259 259 261 264 266 266 267 272 275 274 273 275 276 274 271 267 263 263 262 260 269 278 279 274 263 258 264 270 264 259 261 261 260 258 256 254 251 247 244 243 242
225 226 228 229 231 233 234 236 237 238 240 242 243 244 245 245 246 245 246 248 250 251 253 254 257 259 261 263 264 265 265 266 267 268 269 269 270 270 271 272 271 268 264 261 259 258 257 261 267 269 269 274 278 275 271 271 271 270 269 266 259 254 253 251 253 265 274 275 264 255 263 271 264 254 257 260 259 258 257 257 255 249 244 242 240
224 225 227 229 231 233 234 235 237 239 241 243 244 245 246 246 246 245 246 247 248 250 252 254 256 258 260 261 263 264 265 266 266 267 268 269 270 271 272 273 272 270 268 265 262 259 258 259 264 269 271 275 279 277 272 270 270 269 267 266 261 255 255 257 258 266 275 277 269 258 265 272 267 254 256 264 264 261 261 262 260 256 250 244 240
223 225 227 229 231 232 234 235 237 240 242 243 245 246 247 247 247 246 246 247 247 249 251 253 255 257 259 259 261 264 266 265 265 266 267 268 269 269 269 270 272 272 271 270 268 265 261 257 257 264 269 269 273 277 275 270 268 268 267 270 271 264 262 269 275 277 277 275 269 260 261 269 268 256 256 264 265 262 265 266 263 260 256 250 245
222 225 227 228 230 232 233 235 237 240 243 244 245 246 247 247 247 246 247 247 247 249 251 253 255 256 258 258 260 263 265 266 266 266 267 268 268 267 266 266 269 272 272 274 276 273 268 264 263 268 269 266 267 275 278 274 269 268 269 273 276 277 274 276 278 275 273 272 266 256 254 265 266 256 256 263 263 260 264 266 263 261 257 253 249
223 225 227 228 230 231 233 234 236 240 244 245 246 247 248 247 247 246 247 247 247 248 250 253 254 256 257 257 259 262 264 265 267 268 269 270 268 267 265 264 267 270 271 276 280 279 276 277 276 274 272 271 274 278 282 281 276 272 272 274 277 280 270 257 265 269 271 273 269 258 252 262 264 258 259 264 261 258 260 261 261 260 257 253 250
222 224 226 228 230 231 233 233 234 238 243 245 246 247 247 246 245 245 245 246 247 247 250 253 254 256 257 257 258 260 262 264 267 269 270 269 268 266 265 265 266 268 271 276 280 280 277 275 277 276 274 276 279 280 282 283 281 277 273 268 272 273 256 236 255 267 270 273 273 263 250 256 260 257 259 263 259 256 257 257 257 257 256 253 249
222 224 226 228 230 231 232 233 234 237 242 244 245 246 247 245 244 244 244 245 245 246 249 253 254 255 257 258 258 259 260 264 266 268 269 268 266 265 265 266 265 265 270 273 274 279 278 273 275 278 277 274 274 276 278 280 281 277 269 265 270 270 256 234 243 259 267 272 273 267 248 249 256 253 253 260 258 253 253 254 254 252 251 251 249
223 225 226 227 229 231 232 234 236 237 241 245 246 246 246 245 243 243 243 243 243 244 248 251 253 255 256 258 259 260 261 265 267 268 268 267 265 265 265 268 269 268 271 269 258 266 278 278 277 279 280 278 275 275 278 281 281 277 268 266 268 265 257 249 246 251 259 267 271 269 250 247 255 251 246 250 253 252 250 249 248 247 246 247 247